Regional Weather Roundup
Issued by NWS

Home | Current Version | Previous Version | Text Only | Print | Product List | Glossary On
Versions: 1 2 3 4 5 6 7 8 9 10 11 12 13 14 15 16 17 18 19 20 21 22 23 24 25 26 27 28 29 30 31 32 33 34 35 36 37 38 39 40 41 42 43 44 45 46 47 48 49 50
000
ASUS43 KLSX 280507
RWRMO

WEATHER SUMMARY FOR MISSOURI
NATIONAL WEATHER SERVICE SPRINGFIELD MO
1200 AM CDT SAT MAR 28 2015

NOTE: "FAIR" INDICATES FEW OR NO CLOUDS BELOW 12,000 FEET WITH NO
       SIGNIFICANT WEATHER AND/OR OBSTRUCTIONS TO VISIBILITY.
       CURRENT SKY AND/OR WEATHER CONDITIONS ARE NOT AVAILABLE FOR
       CHILLICOTHE AND FARMINGTON.

MOZ001>031-035>038-043-044-053-054-280600-
...NORTHERN AND WESTERN MISSOURI...

CITY           SKY/WX    TMP DP  RH WIND       PRES   REMARKS
KANSAS CTY INT CLOUDY    39  22  50 SE10      30.12F
KANSAS C DTWN  CLOUDY    42  20  41 E9        30.13F
LEE`S SUMMIT   CLOUDY    40  20  44 E7        30.14F
ST JOSEPH      CLOUDY    38  24  57 E7        30.14F
CHILLICOTHE      N/A     39  23  52 CALM      30.17F
KIRKSVILLE     CLOUDY    32  18  56 E6        30.17F WCI  26

$$
MOZ066>068-077>081-088>096-101>105-280600-
...SOUTHWEST MISSOURI...

CITY           SKY/WX    TMP DP  RH WIND       PRES   REMARKS
SPRINGFIELD    CLOUDY    41  22  46 NE9       30.15S
JOPLIN         CLOUDY    43  24  47 E6        30.15S

$$
MOZ032>034-039>042-045>050-055>058-069>072-280600-
...CENTRAL MISSOURI...

CITY           SKY/WX    TMP DP  RH WIND       PRES   REMARKS
COLUMBIA       CLOUDY    37  24  59 CALM      30.17S
JEFFERSON CITY CLOUDY    37  25  61 CALM      30.18F
ROLLA          CLOUDY    35  26  69 CALM      30.15S
SEDALIA        CLOUDY    40  23  50 CALM      30.18S
WHITEMAN AFB   CLOUDY    39  25  56 E5        30.15F
WARRENSBURG    CLOUDY    37  23  56 NE5       30.16F
OSAGE BEACH    CLOUDY    37  27  65 CALM      30.18S

$$
MOZ051-052-059>065-280600-
...EAST CENTRAL MISSOURI...

CITY           SKY/WX    TMP DP  RH WIND       PRES   REMARKS
ST LOUIS INTL  PTCLDY    33  17  51 E7        30.21S WCI  27
SPIRIT OF STL  PTCLDY    29  22  75 CALM      30.20S
ST CHARLES     CLEAR     30  19  63 E7        30.21S WCI  23

$$
MOZ072>076-082>087-097>100-106>115-280600-
...SOUTH CENTRAL AND SOUTHEAST MISSOURI...

CITY           SKY/WX    TMP DP  RH WIND       PRES   REMARKS
CAPE GIRARDEAU MOCLDY    31  28  89 W3        30.21R
FARMINGTON     MOCLDY    28  21  74 S18G26    30.21S WCI  16
POPLAR BLUFF   MOCLDY    36  30  79 CALM      30.20S
WEST PLAINS    CLOUDY    36  25  64 E3        30.17S

$$


USA.gov is the U.S. government's official web portal to all federal, state and local government web resources and services.